Helicity
112 102 94 79 73 71 79 67 75 80 73 61 61 51 48 57 48 88 157 182 177 164 165 152 120 118 108 37 83 112 140 118 102 84 48 30 44 53 65 100 102 102 95 92 95 82 93
112 100 98 94 91 91 85 72 71 73 68 64 62 57 54 53 68 72 147 200 195 206 171 141 118 95 74 65 104 103 86 69 36 48 32 36 42 41 106 115 120 105 187 143 84 111 103
117 115 112 103 92 91 85 79 79 78 80 73 68 61 56 61 62 70 159 207 243 204 185 143 129 83 59 121 126 128 83 78 81 61 58 65 76 95 122 87 42 109 102 117 114 111 104
114 114 115 109 92 96 81 80 80 85 84 72 68 61 61 64 69 74 178 229 255 190 192 149 117 87 65 162 98 114 97 130 113 114 105 115 137 139 116 92 84 105 94 157 109 51 59
107 108 113 104 101 98 84 81 87 85 83 69 64 60 62 56 73 87 203 290 248 223 207 117 70 123 60 276 42 47 -6 39 65 62 76 89 108 145 149 140 138 145 162 141 110 40 167
104 94 100 98 100 88 77 77 91 98 97 75 56 57 71 57 80 126 324 386 329 250 194 103 140 157 103 91 93 60 81 42 72 86 101 142 204 158 143 194 335 119 74 69 59 60 112
88 102 102 104 88 79 82 91 98 103 104 94 69 72 71 52 124 356 683 441 349 268 268 221 149 123 240 95 73 99 92 113 130 153 170 111 134 196 102 53 49 87 150 215 98 51 108
77 98 99 92 80 81 87 89 85 89 101 96 73 68 50 104 227 404 224 339 265 398 165 51 65 68 74 57 102 115 108 146 94 80 93 166 242 62 57 124 220 226 142 139 150 75 89
83 101 96 85 81 93 93 90 84 82 95 80 58 59 98 150 285 242 307 248 361 318 221 134 101 91 48 72 88 59 87 158 90 108 66 131 163 140 95 163 293 339 309 155 163 191 56
75 91 86 69 75 79 85 100 89 102 117 62 72 99 152 278 269 331 427 437 274 172 234 151 157 188 159 128 144 45 1 55 108 72 75 142 102 149 156 7 78 199 236 149 168 155 171
90 80 97 80 78 80 90 93 94 92 66 69 113 184 311 266 326 395 402 302 256 160 298 113 183 298 214 196 186 87 54 10 54 54 249 204 128 144 159 145 172 117 99 123 -12 87 181
112 111 109 96 92 92 95 111 126 134 59 127 196 269 301 341 346 278 249 283 212 321 394 160 218 182 205 71 45 143 64 33 134 166 254 193 207 343 99 156 186 224 297 98 19 3 163
111 121 115 97 95 98 117 132 147 203 324 347 457 416 368 296 319 248 260 268 353 381 309 252 265 173 124 80 53 70 80 190 181 177 142 183 222 250 132 93 49 86 204 222 193 99 158
71 90 109 85 59 89 75 91 84 172 292 532 613 569 467 278 284 351 381 308 289 250 174 250 259 140 80 58 54 59 88 137 114 89 171 125 185 199 125 64 46 -30 108 216 189 167 55
98 66 47 50 41 78 80 75 71 26 141 353 467 482 377 255 262 380 411 420 292 308 286 241 202 158 101 52 88 78 70 138 126 67 159 150 117 78 85 14 -5 27 33 -17 88 121 119
96 70 58 50 36 72 106 91 85 70 64 75 199 277 266 175 203 247 281 299 216 193 193 162 162 159 106 65 87 31 67 99 66 44 34 151 161 69 101 26 -1 12 -6 -19 53 82 110
79 62 65 58 29 90 120 102 80 55 37 30 106 188 152 162 222 248 288 186 163 136 138 148 120 123 91 160 78 63 89 191 159 247 154 196 216 111 120 76 78 30 25 9 72 104 96
99 55 68 25 -0 60 143 120 104 65 74 143 173 205 163 170 231 255 204 235 260 163 96 127 159 170 120 92 132 182 168 298 230 150 143 121 163 115 57 67 40 103 155 67 94 49 41
78 74 41 36 7 4 142 114 75 76 61 146 207 265 150 202 235 185 167 130 116 132 87 106 102 100 119 67 139 148 214 278 210 171 172 173 57 102 130 70 69 66 78 114 121 91 123
51 74 59 27 -36 60 66 106 116 87 28 160 196 217 266 168 175 129 57 107 94 63 119 101 144 106 81 74 88 106 188 210 218 249 289 243 141 138 85 114 143 127 99 86 98 132 109
38 54 47 1 -55 -64 18 98 94 84 90 172 205 177 151 179 111 122 82 97 50 88 62 67 110 54 62 124 89 105 130 177 125 146 169 150 220 212 216 133 101 88 60 52 73 43 87
31 18 56 -35 -61 -19 62 110 101 60 86 200 214 163 120 128 45 50 92 105 43 56 57 83 73 42 28 61 109 119 121 123 150 106 107 72 137 94 78 58 37 56 22 23 38 48 48
41 -5 -10 -29 -56 40 120 87 98 69 153 229 154 139 112 110 66 79 83 62 46 55 108 82 48 64 57 103 141 112 84 96 67 50 41 36 53 68 64 33 37 7 76 88 63 53 111
19 16 9 -16 -71 -45 34 79 76 90 68 178 128 114 124 96 80 55 35 46 55 26 74 31 50 62 112 55 58 63 76 67 62 65 48 22 38 60 84 46 39 159 139 112 152 225 225
22 34 82 5 -27 -37 74 122 121 66 46 144 132 89 69 61 28 32 40 9 43 92 28 73 80 76 22 12 72 133 85 42 31 33 42 60 73 81 71 50 123 43 69 56 49 102 85
41 84 9 69 53 58 144 142 93 39 37 67 171 132 117 123 56 20 51 29 44 68 108 76 47 39 34 28 31 117 80 47 23 42 83 91 94 79 73 84 72 125 71 70 54 59 97
143 1 2 196 207 85 79 107 91 47 49 -14 125 112 79 150 128 111 67 36 37 29 52 36 42 41 57 22 15 35 23 91 20 39 56 61 63 35 47 43 56 57 64 49 20 80 68
185 5 80 82 65 56 64 51 50 62 51 16 58 154 113 84 132 99 124 66 56 42 44 45 51 48 39 40 38 39 40 52 57 97 46 31 31 28 12 27 50 88 51 49 71 51 6
25 84 64 57 56 60 41 62 55 100 64 35 174 123 102 83 91 68 89 109 119 124 65 10 68 40 65 55 61 45 44 50 33 35 35 37 34 53 67 82 59 57 66 31 28 40 28
Wind_Speed
65 66 68 70 70 71 74 74 73 76 77 79 79 77 76 74 74 63 51 47 46 44 47 51 58 62 65 62 63 50 42 36 32 33 37 38 45 51 62 61 57 60 61 65 68 59 67
67 68 69 70 70 73 76 76 75 76 80 79 78 76 72 71 69 62 54 45 42 40 44 50 53 58 65 84 53 41 40 32 33 39 44 44 49 52 71 74 74 70 69 67 65 67 65
67 70 70 72 73 73 77 79 77 80 83 80 77 74 70 67 64 62 48 41 37 39 40 47 51 58 75 81 55 49 41 42 41 47 54 49 51 58 62 75 69 79 87 82 69 65 65
68 70 73 74 76 76 79 80 79 83 84 81 78 77 72 68 61 57 42 36 34 36 39 45 50 62 87 61 50 53 48 50 47 48 52 51 51 62 67 71 86 88 84 94 73 65 62
70 72 74 76 77 78 80 79 83 86 86 85 82 77 71 67 57 50 36 31 31 35 42 46 55 57 94 48 54 47 40 49 50 48 48 49 50 65 64 80 95 84 104 91 81 58 56
73 74 75 79 80 79 80 83 86 88 89 87 83 77 67 61 47 39 25 25 28 37 44 43 51 67 60 66 55 47 38 36 44 49 53 52 56 76 78 80 109 98 96 91 89 63 56
75 76 78 80 81 80 85 88 87 88 89 89 85 71 57 46 37 20 15 29 47 57 51 57 57 55 47 45 47 51 42 44 45 55 71 59 76 94 87 80 85 98 101 99 87 63 65
79 82 82 82 78 81 86 88 87 86 89 86 73 59 48 37 27 21 24 44 45 49 72 47 55 66 61 59 80 56 38 55 53 72 59 65 87 78 77 82 85 94 98 98 87 79 66
76 79 79 79 81 84 83 86 88 89 88 82 64 57 42 32 19 24 32 34 38 45 69 80 66 69 60 47 69 69 50 52 57 63 62 71 74 69 77 81 88 92 95 82 91 92 86
78 79 80 79 82 81 82 82 87 86 85 69 57 45 32 16 22 28 35 25 27 37 68 80 60 57 43 40 68 49 41 42 46 55 56 61 57 59 65 69 67 90 90 85 96 92 88
81 81 82 78 78 77 78 78 78 80 75 54 44 30 16 19 26 32 26 19 24 32 87 58 47 34 32 26 44 35 36 24 33 35 41 43 55 57 58 65 63 86 74 84 75 82 87
81 80 79 77 73 72 71 68 66 70 57 41 28 18 14 25 27 19 9 12 23 51 87 49 41 44 36 25 31 40 39 20 35 38 41 43 44 51 47 54 64 66 65 63 68 65 79
76 77 76 73 65 60 56 52 51 47 38 21 14 15 26 28 32 10 7 16 48 71 47 56 46 33 33 31 34 32 31 17 31 39 42 37 30 37 31 43 40 46 46 51 54 59 78
76 77 74 71 61 50 46 41 37 33 25 19 19 23 37 33 15 15 15 34 70 63 54 36 30 29 36 32 39 38 26 24 26 35 43 35 38 17 14 24 38 41 40 59 58 56 61
75 75 73 70 63 54 44 40 33 27 21 16 22 29 30 21 15 19 28 59 56 50 38 35 38 46 45 46 49 33 29 26 25 20 30 37 35 13 18 14 18 44 51 29 63 70 58
75 75 74 71 66 57 49 45 38 32 26 24 31 34 30 20 19 25 40 55 46 39 39 40 46 47 48 46 41 41 27 24 20 16 13 38 36 20 17 27 29 33 32 43 46 56 58
71 71 71 69 65 53 46 42 39 36 32 29 35 40 31 24 25 36 50 47 44 38 38 45 52 46 53 51 50 45 36 27 17 23 20 29 33 27 27 30 46 37 25 37 37 58 61
72 72 71 65 61 57 42 38 36 34 32 34 38 49 28 21 40 45 46 42 44 43 41 46 49 46 52 46 49 45 37 32 31 25 19 24 37 35 21 27 20 35 49 41 49 52 47
71 73 70 71 67 76 37 27 27 31 31 33 39 36 30 37 50 48 46 48 44 40 40 41 42 40 41 46 46 40 32 33 33 25 16 18 32 25 28 28 25 32 36 47 50 52 60
76 75 75 73 68 56 43 30 24 26 32 39 39 41 39 49 53 50 46 49 44 39 40 34 38 36 43 35 36 33 31 31 28 21 27 30 33 32 47 40 32 35 37 36 39 55 63
80 81 77 68 77 86 49 30 25 26 30 41 43 47 41 50 62 55 45 45 42 39 32 29 36 38 35 36 29 28 20 14 15 19 25 29 36 44 43 41 44 48 46 43 48 51 57
83 79 69 84 88 86 51 31 25 26 33 51 47 42 42 48 46 52 47 46 39 29 24 28 40 31 28 35 29 23 19 11 23 25 29 33 39 41 48 47 52 58 57 58 59 60 66
80 80 81 81 79 73 42 27 23 30 35 50 53 48 46 51 43 43 45 46 35 28 30 31 28 28 20 26 20 19 14 25 29 23 27 31 35 37 50 39 46 58 48 51 54 48 53
70 82 88 88 90 76 37 33 21 25 46 46 45 48 45 46 36 41 37 31 29 20 23 30 31 22 15 11 10 13 15 19 23 26 25 28 30 33 39 34 44 32 37 41 47 48 50
73 79 88 95 92 82 38 26 21 26 34 48 44 40 44 47 36 29 27 22 21 14 23 18 21 17 5 5 7 15 20 24 33 30 27 25 28 32 31 29 32 34 41 41 44 44 43
64 70 68 46 36 34 30 20 23 38 66 59 53 43 39 37 32 27 24 17 14 12 19 21 14 11 12 14 16 33 30 29 31 29 22 26 32 30 27 34 38 28 37 39 40 49 42
52 69 57 27 32 33 21 24 34 61 57 55 47 45 38 32 26 28 23 21 25 20 21 12 13 17 26 17 19 30 32 34 25 22 22 21 27 25 24 30 32 29 39 36 42 40 42
59 34 27 26 21 19 16 20 57 54 58 45 48 49 40 28 24 23 24 20 23 27 24 14 17 26 18 23 32 32 34 28 24 27 19 19 19 20 21 28 37 39 31 29 33 38 39
27 24 19 16 15 14 14 55 60 62 48 32 42 41 43 33 24 12 14 21 26 30 20 19 29 15 26 37 36 29 28 26 17 20 24 25 24 23 27 28 27 36 30 32 34 29 31
Wind_Direction
293 293 293 293 294 293 293 292 293 294 294 293 295 296 296 297 294 296 294 295 298 302 308 312 314 317 315 305 301 315 326 323 320 318 312 309 305 303 295 300 300 290 293 292 296 294 291
292 293 293 293 293 293 292 291 293 294 295 296 297 297 300 300 299 296 293 292 295 300 305 309 313 317 307 296 317 317 319 317 310 305 303 301 300 300 296 294 293 296 299 295 293 290 291
292 292 293 293 292 293 293 292 293 295 296 298 299 300 300 299 302 297 290 288 291 298 304 309 313 313 299 294 310 312 305 297 297 293 294 293 296 292 297 296 296 293 289 292 285 288 287
292 292 292 293 293 294 295 294 295 296 298 299 299 299 299 299 299 296 285 283 289 299 304 310 313 309 297 310 307 298 295 297 299 296 292 294 294 289 286 290 288 290 290 285 289 283 280
292 293 293 294 296 296 297 297 297 296 297 297 298 298 298 298 297 294 282 282 289 301 305 311 310 308 299 322 311 312 300 296 298 298 298 297 290 286 285 284 284 281 282 285 289 282 282
293 293 294 295 296 297 297 297 297 297 297 298 298 297 296 294 293 289 276 287 299 305 305 310 306 304 302 303 316 323 326 305 302 303 293 292 291 282 277 274 274 281 278 281 281 278 275
293 293 295 295 295 296 297 298 298 298 298 298 297 297 294 289 287 267 272 294 294 297 291 289 300 295 314 323 320 313 313 309 299 296 289 288 282 276 279 274 275 277 278 278 283 280 271
290 291 292 294 295 297 298 298 299 298 298 298 297 296 292 285 271 238 256 280 284 308 297 284 286 286 289 299 299 300 311 301 296 291 290 283 280 281 283 281 279 278 274 270 276 278 274
291 292 293 294 296 297 298 298 297 296 296 297 293 293 288 281 242 245 268 277 303 310 298 294 289 290 293 289 289 292 290 286 289 291 288 278 282 293 279 278 276 275 275 273 270 273 276
289 290 291 293 296 296 297 298 297 297 297 294 291 290 281 251 260 269 274 294 306 312 299 296 299 303 293 290 302 298 279 269 279 283 289 286 285 276 286 276 273 275 272 273 270 266 268
286 288 290 292 294 295 297 298 299 298 297 291 289 283 242 220 284 267 274 288 309 311 291 306 301 322 318 286 324 324 313 254 265 280 297 287 293 282 267 270 276 274 278 273 269 268 267
284 286 289 290 292 294 295 298 302 303 295 287 277 253 225 275 291 278 248 290 304 290 287 297 305 304 300 280 297 316 316 283 302 301 299 294 309 307 278 279 273 280 286 273 270 269 264
283 283 286 288 290 292 295 299 303 309 312 285 265 243 270 277 269 233 216 286 283 280 302 290 297 294 289 293 298 294 304 255 291 300 294 296 279 307 307 283 273 269 279 275 275 267 264
283 283 282 283 282 283 288 294 303 306 305 298 287 281 286 280 242 210 253 278 278 288 274 304 301 294 285 291 292 293 273 257 264 296 312 303 309 267 242 268 281 262 260 267 273 276 275
282 282 280 280 278 271 275 281 288 295 297 291 292 291 287 269 230 244 261 270 280 283 296 293 296 290 287 285 287 288 265 260 269 271 300 313 306 318 305 278 250 289 258 260 276 276 281
281 281 279 278 274 263 264 267 272 276 277 278 284 285 276 258 252 257 268 274 282 285 291 289 286 293 292 281 274 283 277 289 256 250 293 314 308 322 303 303 284 280 284 269 273 277 271
280 280 279 277 273 256 258 261 263 266 265 270 278 277 269 256 259 263 269 273 279 283 288 287 288 285 285 286 279 285 294 307 289 290 300 315 308 309 313 294 281 276 288 281 286 276 272
278 277 276 273 269 257 248 253 254 255 256 266 270 270 247 238 254 265 265 278 282 279 285 285 290 285 283 282 282 282 280 301 303 300 274 297 298 298 299 310 319 290 274 284 280 274 283
278 275 273 270 265 261 223 230 241 235 241 262 264 271 251 252 258 260 268 271 279 277 278 283 289 286 283 279 283 284 277 298 303 304 286 300 288 293 297 299 304 293 295 288 286 286 279
274 270 267 262 259 249 231 218 201 225 238 266 261 260 254 252 258 262 256 267 269 273 282 283 289 289 278 283 283 282 286 292 297 304 291 294 292 284 283 294 306 294 292 294 292 284 284
268 261 257 255 243 237 233 216 213 222 230 255 259 260 250 249 247 258 259 270 264 275 272 278 283 281 278 281 286 283 290 291 312 304 291 287 281 278 290 296 294 292 291 290 287 287 283
252 250 251 236 231 233 185 188 204 223 230 246 254 260 253 261 247 247 258 263 261 262 267 275 276 285 272 278 291 281 287 286 279 278 286 287 285 289 284 291 289 283 282 280 282 284 281
245 236 236 232 223 230 202 186 193 231 218 243 248 258 256 255 246 244 251 259 260 262 282 279 274 286 284 281 305 307 312 279 280 281 288 289 288 291 279 300 295 282 295 293 292 296 295
244 231 228 223 213 225 182 167 180 207 227 242 246 248 250 253 241 245 249 253 258 252 278 275 270 282 306 340 349 344 307 293 287 288 294 294 294 295 291 306 293 315 319 313 305 304 308
230 229 229 215 201 190 175 183 182 224 206 235 244 248 244 246 241 238 244 243 260 268 273 268 287 304 58 337 329 286 285 285 270 283 296 301 297 296 301 303 318 319 324 324 319 318 324
239 224 208 209 169 181 175 189 222 230 219 228 234 248 251 242 238 242 242 241 246 247 259 273 301 303 286 293 289 265 270 272 273 281 304 295 294 298 309 305 309 333 342 344 341 319 337
216 198 197 172 169 156 173 224 229 219 220 226 234 241 246 250 251 249 246 245 253 259 264 263 277 281 265 276 274 266 268 269 281 289 289 299 301 307 317 316 334 346 341 351 331 338 342
194 192 154 165 175 171 175 209 218 220 217 225 235 231 239 256 249 261 259 257 259 258 257 258 269 266 264 263 259 263 265 270 284 281 301 315 324 328 334 326 322 345 353 348 349 339 303
188 158 144 159 180 183 185 213 213 211 214 223 231 229 229 249 248 265 278 264 256 254 264 244 264 248 256 248 252 262 268 277 296 298 308 314 326 341 343 347 11 357 356 324 302 338 353